Content
SEND FEEDBACK

Daily
Averages
Monthly
Summary
Kuwait

AD DASMA', KUWAIT


Home > Middle East > Kuwait
Elevation: 180 feet     Latitude: 29 31N     Longitude: 047 58E

WEATHER
 
SELECT A DAY
Number of Records: 220,334;   Date Range: 7/1/96 - 7/9/14
 
SHARE

PRINT THIS DATA

[ ← Previous Day ]
WEATHER ALMANAC - JANUARY 31, 2013
[ Next Day → ]
[ °C ]   °F
Weather ElementAverageHighLow
Temperature59 °F62.6 °F (2:00 pm)55.4 °F (4:00 am)
Dewpoint51.4 °F55.4 °F (10:00 am)46 °F (9:00 pm)
Humidity74.9 %88 % (5:00 am)50 % (9:00 pm)
Barometer29.85 in29.92 in (1:00 am)29.74 in (3:00 pm)
Wind Speed8.8 mph17.3 mph (3:00 pm)
Weather ElementAverage
Visibility3.6 mi
Wind DirectionSSE (151.1 °)

Weather ElementTotal
Precipitation---
Heating Degree Days6 (Base 65)
Growing Degree Days9 (Base 50)
Averaged from 28 records on January 31, 2013
WEATHER CONDITIONS BREAKOUT
WIND DIRECTION BREAKOUT
WEATHER BY HOUR - JANUARY 31, 2013
[ °C ]   °F
Local TimeTemperatureDewpointHumidityBarometerVisibilityWind DirectionWind SpeedGust SpeedPrecipitationEventsConditions
1:00 AM57.2 °F51.8 °F82 %29.92 in4.3 miSSE (150°)5.8 mph
2:00 AM57.2 °F48.2 °F72 %29.89 in5.0 miCalm
3:00 AM56.0 °F50.0 °F75 %29.90 in5.0 miESE (110°)4.6 mphMist
3:00 AM57.2 °F50.0 °F77 %29.89 in5.0 miESE (110°)4.6 mph
4:00 AM55.4 °F50.0 °F82 %29.89 in5.0 miSSE (160°)5.8 mphOvercast
5:00 AM55.4 °F51.8 °F88 %29.89 in4.3 miSouth (170°)4.6 mphMostly Cloudy
6:00 AM55.4 °F51.8 °F88 %29.89 in3.7 miSouth (180°)5.8 mphMostly Cloudy
7:00 AM55.4 °F51.8 °F88 %29.86 in2.5 miSSE (150°)4.6 mphMostly Cloudy
8:00 AM57.2 °F51.8 °F82 %29.89 in2.5 miCalmRainLight Rain
9:00 AM60.0 °F52.0 °F69 %29.91 in4.0 miCalmRainLight Rain
9:00 AM60.8 °F51.8 °F72 %29.89 in3.7 miCalmRainLight Rain
10:00 AM60.8 °F55.4 °F82 %29.86 in3.7 miESE (110°)8.1 mphRainLight Rain
11:00 AM60.8 °F53.6 °F77 %29.86 in4.3 miESE (120°)12.7 mphRainLight Rain
12:00 PM60.8 °F51.8 °F72 %29.83 in5.0 miSSE (150°)12.7 mphRainLight Rain
1:00 PM60.8 °F53.6 °F77 %29.80 in4.3 miSE (130°)15.0 mphRainLight Rain
2:00 PM62.6 °F51.8 °F68 %29.77 in4.3 miSSE (150°)16.1 mphRainLight Rain
3:00 PM61.0 °F54.0 °F70 %29.76 in4.0 miSSE (150°)17.3 mphRainLight Rain
3:00 PM60.8 °F53.6 °F77 %29.74 in4.3 miSSE (150°)17.3 mphRainLight Rain
4:00 PM60.8 °F53.6 °F77 %29.77 in4.3 miSSE (160°)16.1 mphOvercast
5:00 PM60.8 °F51.8 °F72 %29.77 in2.5 miSSE (160°)17.3 mphLight Haze
6:00 PM60.8 °F53.6 °F77 %29.77 in2.5 miSouth (170°)13.8 mphLight Haze
7:00 PM60.8 °F53.6 °F77 %29.80 in2.5 miSouth (180°)15.0 mphLight Haze
7:30 PM60.8 °F53.6 °F77 %29.83 in2.5 miSouth (180°)13.8 mphLight Haze
8:00 PM60.8 °F51.8 °F72 %29.83 in2.2 miSSW (200°)10.4 mphLight Haze
9:00 PM60.0 °F46.0 °F50 %29.86 in2.0 miWest (270°)8.1 mphWidespread Dust
9:00 PM60.8 °F46.4 °F59 %29.86 in2.2 miWSW (240°)8.1 mphLight Haze
10:00 PM57.2 °F46.4 °F67 %29.86 in2.2 miWest (280°)4.6 mphLight Haze
11:00 PM55.4 °F46.4 °F72 %29.89 in2.2 miWSW (250°)3.5 mphLight Haze
Hourly data recorded from OKBK, located miles away from Ad Dasma', Kuwait







STORIES FROM OUR PARTNERS